EWG6M EDDH-EGCC

Flight info

Callsign EWG6M
Flight time 1h 26m
Altitude 38000
Route WSN5G WSN N125 ITMIZ DCT MIMVA DCT OTBED
Aircraft A319/M-SDE3FGHIRWY/LB1

Departure

Time 2026-04-22 07:20
Airport Hamburg Helmut Schmidt Airport (EDDH)

Arrival

Time 2026-04-22 08:46
Airport Manchester Airport (EGCC)
Time Latitude Longitude Altitude Speed Heading
2026-04-22 06:40 53.63331 10.00367 49 ft 0 kts 86°
2026-04-22 06:53 53.63331 10.00366 49 ft 0 kts 86°
2026-04-22 07:12 53.63330 10.00334 48 ft 4 kts 86°
2026-04-22 07:12 53.63328 10.00288 47 ft 4 kts 86°
2026-04-22 07:13 53.63327 10.00244 43 ft 4 kts 98°
2026-04-22 07:13 53.63336 10.00206 45 ft 4 kts 146°
2026-04-22 07:13 53.63348 10.00197 46 ft 0 kts 176°
2026-04-22 07:16 53.63345 10.00197 48 ft 2 kts 176°
2026-04-22 07:17 53.63292 10.00204 48 ft 13 kts 175°
2026-04-22 07:17 53.63163 10.00221 48 ft 23 kts 175°
2026-04-22 07:17 53.63031 10.00183 48 ft 19 kts 212°
2026-04-22 07:17 53.62942 10.00071 47 ft 10 kts 240°
2026-04-22 07:18 53.62906 9.99947 45 ft 13 kts 243°
2026-04-22 07:18 53.62896 9.99913 48 ft 0 kts 243°
2026-04-22 07:18 53.62894 9.99906 46 ft 3 kts 243°
2026-04-22 07:18 53.62863 9.99801 45 ft 16 kts 252°
2026-04-22 07:19 53.62898 9.99718 45 ft 0 kts 333°
2026-04-22 07:19 53.62986 9.99644 43 ft 44 kts 333°
2026-04-22 07:19 53.63453 9.99237 46 ft 106 kts 333°
2026-04-22 07:19 53.64273 9.98522 110 ft 151 kts 332°
2026-04-22 07:20 53.65215 9.97712 721 ft 153 kts 332°
2026-04-22 07:20 53.66171 9.96866 1313 ft 161 kts 332°
2026-04-22 07:20 53.67244 9.95943 1572 ft 186 kts 333°
2026-04-22 07:20 53.68482 9.94883 2008 ft 207 kts 333°
2026-04-22 07:21 53.69751 9.93797 2891 ft 208 kts 333°
2026-04-22 07:21 53.70995 9.92527 3733 ft 214 kts 316°
2026-04-22 07:21 53.71697 9.90271 4362 ft 232 kts 281°
2026-04-22 07:21 53.71561 9.87406 4797 ft 259 kts 257°
2026-04-22 07:22 53.70971 9.84448 5586 ft 270 kts 250°
2026-04-22 07:22 53.70245 9.81469 6476 ft 277 kts 249°
2026-04-22 07:22 53.69498 9.78425 7318 ft 284 kts 249°
2026-04-22 07:22 53.68771 9.75291 8172 ft 288 kts 251°
2026-04-22 07:23 53.68076 9.72092 9034 ft 293 kts 252°
2026-04-22 07:23 53.67398 9.68817 9886 ft 298 kts 252°
2026-04-22 07:23 53.66736 9.65513 10633 ft 305 kts 253°
2026-04-22 07:23 53.66043 9.61982 10919 ft 329 kts 253°
2026-04-22 07:24 53.65196 9.58287 11388 ft 343 kts 244°
2026-04-22 07:24 53.63930 9.54829 12066 ft 349 kts 234°
2026-04-22 07:24 53.62497 9.51496 12796 ft 354 kts 234°
2026-04-22 07:24 53.61042 9.48114 13511 ft 359 kts 234°
2026-04-22 07:25 53.59566 9.44682 14215 ft 364 kts 234°
2026-04-22 07:25 53.58074 9.41214 14831 ft 368 kts 234°
2026-04-22 07:25 53.56558 9.37697 15460 ft 373 kts 234°
2026-04-22 07:25 53.55025 9.34140 16057 ft 377 kts 234°
2026-04-22 07:26 53.53475 9.30546 16677 ft 382 kts 234°
2026-04-22 07:26 53.51904 9.26909 17288 ft 386 kts 234°
2026-04-22 07:26 53.50335 9.23271 17886 ft 391 kts 234°
2026-04-22 07:26 53.48727 9.19556 18490 ft 395 kts 234°
2026-04-22 07:27 53.47092 9.15788 19040 ft 400 kts 234°
2026-04-22 07:27 53.45439 9.11983 19570 ft 404 kts 234°
2026-04-22 07:27 53.43768 9.08145 20103 ft 408 kts 234°
2026-04-22 07:27 53.42083 9.04284 20641 ft 412 kts 234°
2026-04-22 07:28 53.38683 8.96524 21694 ft 421 kts 233°
2026-04-22 07:28 53.36939 8.92555 22210 ft 425 kts 233°
2026-04-22 07:28 53.35248 8.88459 22706 ft 429 kts 240°
2026-04-22 07:29 53.33937 8.83957 23211 ft 431 kts 251°
2026-04-22 07:29 53.32904 8.79223 23728 ft 435 kts 252°
2026-04-22 07:29 53.31860 8.74451 24172 ft 439 kts 251°
2026-04-22 07:29 53.30798 8.69660 24617 ft 441 kts 251°
2026-04-22 07:30 53.29722 8.64828 25068 ft 444 kts 251°
2026-04-22 07:30 53.28647 8.59992 25505 ft 446 kts 251°
2026-04-22 07:30 53.27568 8.55100 25941 ft 449 kts 251°
2026-04-22 07:30 53.26490 8.50183 26378 ft 451 kts 251°
2026-04-22 07:31 53.25465 8.45263 26806 ft 453 kts 253°
2026-04-22 07:31 53.24501 8.40240 27231 ft 455 kts 255°
2026-04-22 07:31 53.23575 8.35166 27655 ft 458 kts 255°
2026-04-22 07:31 53.22660 8.30067 28072 ft 460 kts 255°
2026-04-22 07:32 53.21730 8.24941 28492 ft 463 kts 255°
2026-04-22 07:32 53.20774 8.19791 28881 ft 465 kts 254°
2026-04-22 07:32 53.19796 8.14633 29317 ft 467 kts 254°
2026-04-22 07:32 53.18801 8.09457 29732 ft 469 kts 254°
2026-04-22 07:33 53.17806 8.04267 30131 ft 472 kts 254°
2026-04-22 07:33 53.16812 7.99035 30506 ft 474 kts 254°
2026-04-22 07:33 53.15817 7.93775 30830 ft 476 kts 254°
2026-04-22 07:33 53.14818 7.88498 31160 ft 478 kts 254°
2026-04-22 07:34 53.13815 7.83206 31483 ft 479 kts 254°
2026-04-22 07:34 53.12802 7.77894 31806 ft 481 kts 254°
2026-04-22 07:34 53.11798 7.72643 32186 ft 480 kts 254°
2026-04-22 07:34 53.10991 7.67274 32643 ft 476 kts 263°
2026-04-22 07:35 53.10640 7.61836 33094 ft 470 kts 271°
2026-04-22 07:35 53.10686 7.56416 33580 ft 466 kts 275°
2026-04-22 07:35 53.10784 7.51043 34061 ft 464 kts 275°
2026-04-22 07:35 53.10874 7.45692 34519 ft 462 kts 275°
2026-04-22 07:36 53.10956 7.40340 34905 ft 460 kts 274°
2026-04-22 07:36 53.11033 7.35014 35258 ft 460 kts 274°
2026-04-22 07:36 53.11108 7.29701 35589 ft 459 kts 274°
2026-04-22 07:36 53.11182 7.24390 35905 ft 459 kts 274°
2026-04-22 07:37 53.11254 7.19064 36215 ft 458 kts 274°
2026-04-22 07:37 53.11324 7.13772 36498 ft 458 kts 274°
2026-04-22 07:37 53.11392 7.08473 36824 ft 456 kts 274°
2026-04-22 07:37 53.11458 7.03195 37132 ft 455 kts 274°
2026-04-22 07:38 53.11505 6.99083 37360 ft 455 kts 273°
2026-04-22 07:39 53.11569 6.93122 37672 ft 454 kts 273°
2026-04-22 07:40 53.11637 6.86159 38030 ft 454 kts 273°
2026-04-22 07:40 53.11671 6.82614 38205 ft 453 kts 273°
2026-04-22 07:40 53.11722 6.77361 38397 ft 454 kts 273°
2026-04-22 07:40 53.11774 6.72105 38438 ft 454 kts 273°
2026-04-22 07:41 53.11874 6.61657 38423 ft 453 kts 273°
2026-04-22 07:41 53.11960 6.51189 38433 ft 452 kts 273°
2026-04-22 07:42 53.12041 6.40698 38434 ft 452 kts 273°
2026-04-22 07:42 53.12110 6.30279 38437 ft 452 kts 272°
2026-04-22 07:43 53.12164 6.19807 38439 ft 452 kts 272°
2026-04-22 07:43 53.12209 6.09324 38429 ft 452 kts 272°
2026-04-22 07:44 53.12245 5.98854 38445 ft 452 kts 272°
2026-04-22 07:44 53.12272 5.88443 38449 ft 451 kts 272°
2026-04-22 07:45 53.12289 5.78005 38452 ft 451 kts 272°
2026-04-22 07:45 53.12307 5.67554 38451 ft 451 kts 272°
2026-04-22 07:46 53.12316 5.57104 38439 ft 451 kts 272°
2026-04-22 07:46 53.12305 5.46726 38456 ft 450 kts 272°
2026-04-22 07:47 53.12285 5.36311 38456 ft 449 kts 272°
2026-04-22 07:47 53.12258 5.25913 38450 ft 449 kts 272°
2026-04-22 07:48 53.12229 5.15521 38452 ft 449 kts 271°
2026-04-22 07:48 53.12190 5.05121 38438 ft 449 kts 271°
2026-04-22 07:49 53.12133 4.94728 38443 ft 449 kts 271°
2026-04-22 07:49 53.12067 4.84387 38444 ft 449 kts 271°
2026-04-22 07:50 53.11994 4.73977 38446 ft 449 kts 271°
2026-04-22 07:50 53.11915 4.63555 38442 ft 450 kts 271°
2026-04-22 07:51 53.11826 4.53146 38442 ft 450 kts 271°
2026-04-22 07:51 53.11727 4.42726 38444 ft 450 kts 271°
2026-04-22 07:52 53.11621 4.32330 38444 ft 449 kts 271°
2026-04-22 07:52 53.11506 4.21914 38444 ft 449 kts 271°
2026-04-22 07:53 53.11375 4.11548 38445 ft 449 kts 270°
2026-04-22 07:53 53.11238 4.01154 38436 ft 449 kts 270°
2026-04-22 07:54 53.11099 3.90752 38443 ft 449 kts 270°
2026-04-22 07:54 53.10958 3.80337 38444 ft 449 kts 270°
2026-04-22 07:55 53.10806 3.69954 38444 ft 449 kts 270°
2026-04-22 07:55 53.10633 3.59621 38441 ft 449 kts 270°
2026-04-22 07:56 53.10446 3.49222 38443 ft 448 kts 269°
2026-04-22 07:56 53.10252 3.38893 38449 ft 447 kts 270°
2026-04-22 07:57 53.10217 3.28568 38444 ft 444 kts 277°
2026-04-22 07:57 53.10935 3.18423 38443 ft 443 kts 278°
2026-04-22 07:58 53.11653 3.08196 38447 ft 443 kts 278°
2026-04-22 07:58 53.12346 2.97998 38435 ft 443 kts 278°
2026-04-22 07:59 53.13035 2.87806 38441 ft 443 kts 278°
2026-04-22 07:59 53.13719 2.77660 38440 ft 443 kts 278°
2026-04-22 08:00 53.14402 2.67428 38441 ft 443 kts 278°
2026-04-22 08:00 53.15076 2.57250 38441 ft 443 kts 278°
2026-04-22 08:01 53.15733 2.47052 38435 ft 442 kts 277°
2026-04-22 08:01 53.16369 2.36854 38434 ft 442 kts 277°
2026-04-22 08:02 53.17006 2.26667 38435 ft 441 kts 278°
2026-04-22 08:02 53.17642 2.16485 38439 ft 441 kts 278°
2026-04-22 08:03 53.18265 2.06355 38435 ft 441 kts 277°
2026-04-22 08:03 53.18880 1.96179 38447 ft 440 kts 276°
2026-04-22 08:04 53.19480 1.86000 38451 ft 439 kts 276°
2026-04-22 08:04 53.20064 1.75926 38446 ft 438 kts 277°
2026-04-22 08:05 53.20641 1.65788 38445 ft 438 kts 278°
2026-04-22 08:05 53.21216 1.55663 38443 ft 438 kts 277°
2026-04-22 08:06 53.21779 1.45625 38456 ft 437 kts 277°
2026-04-22 08:06 53.22330 1.35535 38449 ft 436 kts 276°
2026-04-22 08:07 53.22878 1.25435 38450 ft 435 kts 277°
2026-04-22 08:07 53.23410 1.15368 38449 ft 435 kts 276°
2026-04-22 08:08 53.23932 1.05351 38443 ft 435 kts 276°
2026-04-22 08:08 53.24455 0.95284 38447 ft 434 kts 276°
2026-04-22 08:09 53.24714 0.90264 37810 ft 437 kts 277°
2026-04-22 08:09 53.24973 0.85180 37124 ft 441 kts 276°
2026-04-22 08:09 53.25230 0.80069 36447 ft 443 kts 276°
2026-04-22 08:09 53.25482 0.74946 35974 ft 439 kts 276°
2026-04-22 08:10 53.25728 0.69883 35548 ft 435 kts 276°
2026-04-22 08:10 53.25967 0.64931 35093 ft 432 kts 276°
2026-04-22 08:10 53.26207 0.59945 34642 ft 429 kts 275°
2026-04-22 08:10 53.26444 0.54990 34157 ft 426 kts 275°
2026-04-22 08:11 53.26676 0.50089 33685 ft 421 kts 276°
2026-04-22 08:11 53.26904 0.45231 33245 ft 416 kts 276°
2026-04-22 08:11 53.27128 0.40438 32795 ft 411 kts 276°
2026-04-22 08:11 53.27348 0.35691 32355 ft 407 kts 276°
2026-04-22 08:12 53.27564 0.31000 31924 ft 402 kts 276°
2026-04-22 08:12 53.27771 0.26428 31504 ft 398 kts 276°
2026-04-22 08:12 53.27979 0.21816 31082 ft 394 kts 276°
2026-04-22 08:12 53.28180 0.17270 30673 ft 390 kts 276°
2026-04-22 08:13 53.28376 0.12774 30240 ft 386 kts 276°
2026-04-22 08:13 53.28571 0.08324 29843 ft 380 kts 276°
2026-04-22 08:13 53.28924 0.04039 29465 ft 373 kts 285°
2026-04-22 08:13 53.29761 -0.00090 29070 ft 369 kts 296°
2026-04-22 08:14 53.30873 -0.03873 28646 ft 364 kts 297°
2026-04-22 08:14 53.31986 -0.07653 28237 ft 361 kts 297°
2026-04-22 08:14 53.33086 -0.11412 27833 ft 358 kts 297°
2026-04-22 08:14 53.34171 -0.15138 27433 ft 355 kts 297°
2026-04-22 08:15 53.35248 -0.18847 27032 ft 354 kts 296°
2026-04-22 08:15 53.36322 -0.22546 26642 ft 353 kts 296°
2026-04-22 08:15 53.37395 -0.26239 26242 ft 352 kts 296°
2026-04-22 08:15 53.38466 -0.29932 25857 ft 352 kts 296°
2026-04-22 08:16 53.39531 -0.33610 25459 ft 350 kts 296°
2026-04-22 08:16 53.40593 -0.37281 25069 ft 350 kts 295°
2026-04-22 08:16 53.41660 -0.40975 24674 ft 353 kts 295°
2026-04-22 08:16 53.42718 -0.44655 24277 ft 356 kts 295°
2026-04-22 08:17 53.43797 -0.48420 23865 ft 360 kts 294°
2026-04-22 08:17 53.44883 -0.52215 23443 ft 361 kts 294°
2026-04-22 08:17 53.45971 -0.56005 23039 ft 359 kts 295°
2026-04-22 08:17 53.47054 -0.59781 22635 ft 358 kts 294°
2026-04-22 08:18 53.48134 -0.63544 22229 ft 356 kts 295°
2026-04-22 08:18 53.49207 -0.67289 21828 ft 355 kts 295°
2026-04-22 08:18 53.50273 -0.71023 21429 ft 354 kts 294°
2026-04-22 08:18 53.51324 -0.74724 21038 ft 356 kts 294°
2026-04-22 08:19 53.52387 -0.78465 20636 ft 354 kts 294°
2026-04-22 08:19 53.53445 -0.82199 20237 ft 354 kts 294°
2026-04-22 08:19 53.54502 -0.85923 19842 ft 351 kts 295°
2026-04-22 08:19 53.55548 -0.89618 19453 ft 348 kts 295°
2026-04-22 08:20 53.56584 -0.93292 19059 ft 346 kts 294°
2026-04-22 08:20 53.57612 -0.96950 18663 ft 344 kts 294°
2026-04-22 08:20 53.58633 -1.00591 18252 ft 342 kts 294°
2026-04-22 08:20 53.59638 -1.04171 17876 ft 341 kts 295°
2026-04-22 08:21 53.60622 -1.07789 17488 ft 339 kts 290°
2026-04-22 08:21 53.61258 -1.11577 17231 ft 335 kts 281°
2026-04-22 08:21 53.61781 -1.15425 17022 ft 338 kts 282°
2026-04-22 08:21 53.62304 -1.19253 16799 ft 335 kts 282°
2026-04-22 08:22 53.62828 -1.23096 16576 ft 336 kts 282°
2026-04-22 08:22 53.63351 -1.26923 16351 ft 335 kts 282°
2026-04-22 08:22 53.63870 -1.30745 16131 ft 335 kts 282°
2026-04-22 08:22 53.64390 -1.34558 15909 ft 331 kts 282°
2026-04-22 08:23 53.64906 -1.38347 15689 ft 332 kts 282°
2026-04-22 08:23 53.65418 -1.42140 15472 ft 330 kts 282°
2026-04-22 08:23 53.65924 -1.45906 15250 ft 328 kts 282°
2026-04-22 08:23 53.66424 -1.49649 15031 ft 327 kts 282°
2026-04-22 08:24 53.66924 -1.53397 14815 ft 328 kts 282°
2026-04-22 08:24 53.67424 -1.57151 14595 ft 328 kts 282°
2026-04-22 08:24 53.67754 -1.59621 14450 ft 326 kts 281°
2026-04-22 08:24 53.68420 -1.64633 14151 ft 330 kts 281°
2026-04-22 08:25 53.68917 -1.68410 13918 ft 330 kts 281°
2026-04-22 08:25 53.69244 -1.70912 13772 ft 327 kts 281°
2026-04-22 08:25 53.69737 -1.74658 13555 ft 325 kts 282°
2026-04-22 08:25 53.70225 -1.78362 13346 ft 324 kts 281°
2026-04-22 08:26 53.70714 -1.82095 13112 ft 325 kts 282°
2026-04-22 08:26 53.71199 -1.85789 12907 ft 322 kts 281°
2026-04-22 08:26 53.71681 -1.89464 12676 ft 320 kts 281°
2026-04-22 08:26 53.72160 -1.93124 12467 ft 318 kts 281°
2026-04-22 08:27 53.72636 -1.96804 12250 ft 321 kts 281°
2026-04-22 08:27 53.73106 -2.00467 12032 ft 317 kts 281°
2026-04-22 08:27 53.73572 -2.04103 11835 ft 317 kts 281°
2026-04-22 08:27 53.74039 -2.07746 11620 ft 317 kts 281°
2026-04-22 08:28 53.74306 -2.11432 11406 ft 316 kts 267°
2026-04-22 08:28 53.74191 -2.15105 11178 ft 311 kts 263°
2026-04-22 08:28 53.74048 -2.18701 10991 ft 311 kts 264°
2026-04-22 08:28 53.73929 -2.21731 10487 ft 307 kts 264°
2026-04-22 08:29 53.73841 -2.23962 10363 ft 301 kts 266°
2026-04-22 08:29 53.73706 -2.27395 10042 ft 288 kts 266°
2026-04-22 08:29 53.73574 -2.30732 9747 ft 281 kts 266°
2026-04-22 08:29 53.73442 -2.34032 9654 ft 282 kts 266°
2026-04-22 08:30 53.73309 -2.37321 9483 ft 281 kts 266°
2026-04-22 08:30 53.73174 -2.40603 9298 ft 280 kts 266°
2026-04-22 08:30 53.73041 -2.43827 9116 ft 279 kts 266°
2026-04-22 08:30 53.72903 -2.47136 8926 ft 278 kts 266°
2026-04-22 08:31 53.72771 -2.50348 8742 ft 277 kts 266°
2026-04-22 08:31 53.72768 -2.53583 8621 ft 276 kts 280°
2026-04-22 08:31 53.74790 -2.58874 8493 ft 275 kts 327°
2026-04-22 08:32 53.76549 -2.60082 8422 ft 275 kts 350°
2026-04-22 08:32 53.78447 -2.60016 8358 ft 274 kts 14°
2026-04-22 08:32 53.80168 -2.58679 8284 ft 274 kts 37°
2026-04-22 08:32 53.81435 -2.56292 8209 ft 274 kts 60°
2026-04-22 08:33 53.82039 -2.53258 8149 ft 273 kts 84°
2026-04-22 08:33 53.81893 -2.50113 8081 ft 273 kts 107°
2026-04-22 08:33 53.81029 -2.47275 8016 ft 273 kts 127°
2026-04-22 08:33 53.79898 -2.44685 7944 ft 274 kts 127°
2026-04-22 08:34 53.78767 -2.42089 7874 ft 274 kts 126°
2026-04-22 08:34 53.77534 -2.39648 7807 ft 273 kts 138°
2026-04-22 08:34 53.75974 -2.37845 7725 ft 273 kts 154°
2026-04-22 08:34 53.74180 -2.36820 7515 ft 272 kts 170°
2026-04-22 08:35 53.72313 -2.36346 7332 ft 269 kts 172°
2026-04-22 08:35 53.70508 -2.35885 7204 ft 260 kts 171°
2026-04-22 08:35 53.68739 -2.35425 7043 ft 253 kts 171°
2026-04-22 08:35 53.67006 -2.35155 6935 ft 249 kts 182°
2026-04-22 08:36 53.65299 -2.35615 6837 ft 249 kts 195°
2026-04-22 08:36 53.63619 -2.36348 6690 ft 248 kts 194°
2026-04-22 08:36 53.61948 -2.37065 6530 ft 247 kts 194°
2026-04-22 08:36 53.60279 -2.37775 6367 ft 247 kts 194°
2026-04-22 08:37 53.58617 -2.38485 6208 ft 246 kts 194°
2026-04-22 08:37 53.56959 -2.39196 6051 ft 245 kts 194°
2026-04-22 08:37 53.55319 -2.39900 5833 ft 246 kts 194°
2026-04-22 08:37 53.53633 -2.40628 5447 ft 249 kts 194°
2026-04-22 08:38 53.51966 -2.41348 5213 ft 245 kts 194°
2026-04-22 08:38 53.50323 -2.42053 5000 ft 242 kts 194°
2026-04-22 08:38 53.48693 -2.42747 4835 ft 241 kts 194°
2026-04-22 08:38 53.47072 -2.43436 4672 ft 240 kts 194°
2026-04-22 08:39 53.45452 -2.44126 4516 ft 240 kts 194°
2026-04-22 08:39 53.43859 -2.44804 4354 ft 239 kts 194°
2026-04-22 08:39 53.42247 -2.45492 4208 ft 239 kts 194°
2026-04-22 08:39 53.40636 -2.46182 4070 ft 238 kts 194°
2026-04-22 08:40 53.39030 -2.46871 3921 ft 238 kts 194°
2026-04-22 08:40 53.37430 -2.47557 3769 ft 237 kts 194°
2026-04-22 08:40 53.35834 -2.48237 3615 ft 237 kts 194°
2026-04-22 08:40 53.34237 -2.48915 3449 ft 236 kts 194°
2026-04-22 08:41 53.32660 -2.49587 3309 ft 230 kts 194°
2026-04-22 08:41 53.31141 -2.50233 3199 ft 220 kts 194°
2026-04-22 08:41 53.29687 -2.50848 3098 ft 212 kts 194°
2026-04-22 08:41 53.28270 -2.51150 2999 ft 203 kts 172°
2026-04-22 08:42 53.27027 -2.50241 2912 ft 193 kts 139°
2026-04-22 08:42 53.26275 -2.48423 2656 ft 193 kts 109°
2026-04-22 08:42 53.26191 -2.46240 2400 ft 187 kts 78°
2026-04-22 08:42 53.26740 -2.44352 2189 ft 178 kts 52°
2026-04-22 08:43 53.27501 -2.42795 1968 ft 166 kts 50°
2026-04-22 08:43 53.28187 -2.41389 1752 ft 146 kts 51°
2026-04-22 08:43 53.28800 -2.40128 1572 ft 136 kts 51°
2026-04-22 08:43 53.29387 -2.38921 1400 ft 132 kts 51°
2026-04-22 08:44 53.29965 -2.37736 1209 ft 131 kts 50°
2026-04-22 08:44 53.30535 -2.36560 1031 ft 130 kts 50°
2026-04-22 08:44 53.31107 -2.35390 879 ft 130 kts 50°
2026-04-22 08:44 53.31674 -2.34213 695 ft 129 kts 51°
2026-04-22 08:45 53.32230 -2.33059 540 ft 129 kts 51°
2026-04-22 08:45 53.32792 -2.31894 367 ft 128 kts 50°
2026-04-22 08:45 53.33356 -2.30736 239 ft 126 kts 50°
2026-04-22 08:45 53.33823 -2.29775 227 ft 88 kts 51°
2026-04-22 08:46 53.34106 -2.29193 231 ft 38 kts 51°
2026-04-22 08:46 53.34239 -2.28916 227 ft 33 kts 51°
2026-04-22 08:46 53.34398 -2.28590 225 ft 39 kts 51°
2026-04-22 08:46 53.34547 -2.28305 229 ft 23 kts 41°
2026-04-22 08:47 53.34697 -2.28171 230 ft 26 kts 21°
2026-04-22 08:47 53.34785 -2.28115 231 ft 0 kts 20°
2026-04-22 08:47 53.34788 -2.28114 231 ft 2 kts 20°
2026-04-22 08:47 53.34816 -2.28096 231 ft 7 kts 20°
2026-04-22 08:48 53.34876 -2.28046 230 ft 12 kts 32°
2026-04-22 08:48 53.34937 -2.27942 230 ft 13 kts 51°
2026-04-22 08:48 53.35002 -2.27804 229 ft 17 kts 52°
2026-04-22 08:48 53.35077 -2.27647 234 ft 18 kts 51°
2026-04-22 08:49 53.35163 -2.27469 235 ft 21 kts 51°
2026-04-22 08:49 53.35254 -2.27282 239 ft 15 kts 51°
2026-04-22 08:49 53.35327 -2.27191 243 ft 4 kts
2026-04-22 08:49 53.35352 -2.27189 245 ft 3 kts 358°
2026-04-22 08:50 53.35388 -2.27212 246 ft 10 kts 329°
2026-04-22 08:50 53.35471 -2.27322 248 ft 18 kts 320°
2026-04-22 08:50 53.35581 -2.27471 245 ft 23 kts 321°
2026-04-22 08:50 53.35696 -2.27618 247 ft 17 kts 334°
2026-04-22 08:51 53.35796 -2.27702 251 ft 16 kts 318°
2026-04-22 08:51 53.35901 -2.27728 255 ft 16 kts
2026-04-22 08:51 53.36015 -2.27788 255 ft 19 kts 322°
2026-04-22 08:51 53.36124 -2.27933 255 ft 22 kts 321°
2026-04-22 08:52 53.36209 -2.28055 255 ft 15 kts 319°
2026-04-22 08:52 53.36316 -2.28048 255 ft 17 kts 22°
2026-04-22 08:52 53.36391 -2.27931 255 ft 7 kts 57°
2026-04-22 08:52 53.36386 -2.27830 255 ft 9 kts 77°
2026-04-22 08:53 53.36433 -2.27749 255 ft 8 kts 45°
2026-04-22 08:53 53.36444 -2.27730 255 ft 0 kts 44°